TimeEST,TemperatureF,Dew PointF,Humidity,Sea Level PressureIn,VisibilityMPH,Wind Direction,Wind SpeedMPH,Gust SpeedMPH,PrecipitationIn,Events,Conditions,WindDirDegrees,DateUTC
12:53 AM,30.0,17.1,59,29.88,10.0,NW,13.8,-,N/A,,Overcast,310,2013-03-03 05:53:00
1:53 AM,30.0,17.1,59,29.89,10.0,NW,9.2,-,N/A,,Overcast,320,2013-03-03 06:53:00
2:53 AM,28.9,18.0,64,29.87,10.0,NW,9.2,-,N/A,,Overcast,310,2013-03-03 07:53:00
3:53 AM,30.0,19.0,64,29.86,10.0,NW,8.1,-,N/A,,Overcast,310,2013-03-03 08:53:00
4:53 AM,30.9,18.0,59,29.86,10.0,NW,10.4,-,N/A,,Overcast,310,2013-03-03 09:53:00
5:53 AM,30.9,18.0,59,29.87,10.0,NW,10.4,-,N/A,,Overcast,320,2013-03-03 10:53:00
7:53 AM,32.0,16.0,52,29.88,10.0,NW,15.0,23.0,N/A,,Overcast,320,2013-03-03 12:53:00
8:53 AM,33.1,15.1,48,29.89,10.0,WNW,11.5,24.2,N/A,,Overcast,300,2013-03-03 13:53:00
9:53 AM,34.0,16.0,48,29.88,10.0,NW,15.0,24.2,N/A,,Overcast,320,2013-03-03 14:53:00
10:53 AM,35.1,12.9,40,29.88,10.0,NW,16.1,23.0,N/A,,Overcast,310,2013-03-03 15:53:00
11:53 AM,37.0,14.0,39,29.88,10.0,WNW,17.3,31.1,N/A,,Mostly Cloudy,300,2013-03-03 16:53:00
12:53 PM,39.0,15.1,38,29.86,10.0,NW,13.8,23.0,N/A,,Partly Cloudy,310,2013-03-03 17:53:00
1:53 PM,39.0,14.0,36,29.83,10.0,WNW,17.3,25.3,N/A,,Partly Cloudy,300,2013-03-03 18:53:00
2:53 PM,37.9,14.0,38,29.83,10.0,WNW,16.1,23.0,N/A,,Overcast,290,2013-03-03 19:53:00
3:53 PM,37.0,15.1,41,29.84,10.0,WNW,16.1,21.9,N/A,,Overcast,290,2013-03-03 20:53:00
4:53 PM,36.0,16.0,44,29.86,10.0,NW,18.4,24.2,N/A,,Overcast,310,2013-03-03 21:53:00
5:53 PM,33.1,15.1,48,29.88,10.0,WNW,17.3,24.2,N/A,,Overcast,300,2013-03-03 22:53:00
6:53 PM,32.0,14.0,48,29.91,10.0,NW,10.4,-,N/A,,Partly Cloudy,310,2013-03-03 23:53:00
7:53 PM,30.9,12.9,47,29.93,10.0,NW,11.5,19.6,N/A,,Clear,320,2013-03-04 00:53:00
8:53 PM,30.0,12.9,49,29.94,10.0,NW,10.4,17.3,N/A,,Clear,310,2013-03-04 01:53:00
9:53 PM,30.0,14.0,51,29.95,10.0,NW,10.4,-,N/A,,Clear,310,2013-03-04 02:53:00
10:53 PM,28.9,14.0,54,29.95,10.0,WNW,12.7,-,N/A,,Clear,300,2013-03-04 03:53:00
11:53 PM,28.9,14.0,54,29.96,10.0,WNW,10.4,-,N/A,,Mostly Cloudy,290,2013-03-04 04:53:00